Flag for Peru Weather past 2 weeks in Iquitos, Loreto, Peru

Now
70 °F

Fog.


Feels Like: 70 °F
Forecast: 70 / 85 °F
Wind: No wind

Location: Iquitos Airport

Current Time: Jul 28, 2014 at 4:14:51 AM

Latest Report: Jul 28, 2014 at 4:00 AM


Visibility: 2 mi

Pressure: 29.98 "Hg

Humidity: 94%

Dew point: 68 °F

Location of IquitosLocation

Historic Weather in Iquitos — Graph

°F

Iquitos temperature yesterday

Maximum temperature yesterday: 81 °F (at 3:00 PM)
Minimum temperature yesterday: 72 °F (at 12:00 AM)
Average temperature yesterday: 75 °F

Past Weeks' High & Low Weather Summary

 TemperatureHumidityPressure
High91 °F (Jul 23, 2:00 PM)100% (Jul 13, 4:00 AM)30.07 "Hg (Jul 13, 4:00 AM)
Low70 °F (Jul 22, 4:00 AM)52% (Jul 23, 2:00 PM)29.77 "Hg (Jul 25, 4:00 PM)
Average77 °F86%29.96 "Hg
* Reported Jul 13 3:00 AM — Jul 28 3:00 AM, Iquitos, Weather by CustomWeather, © 2014

Note: Actual official high and low records may vary slightly from our data, if they occured in-between our weather recording intervals... More about our weather records

Advertising

Iquitos weather history for previous 24 hours

 ConditionsComfort  
Time TempWeatherWind HumidityBarometerVisibility
3:00 AM
Jul 28
70 °FClear.No wind94%29.98 "Hg10 mi
2:00 AM70 °FClear.No wind94%30.01 "Hg10 mi
1:00 AM72 °FPassing clouds.No wind94%30.01 "HgN/A
12:00 AM72 °FPassing clouds.No wind94%30.04 "HgN/A
11:00 PM
Jul 27
72 °FPassing clouds.3 mph94%30.01 "HgN/A
10:00 PM72 °FPassing clouds.No wind94%30.01 "HgN/A
9:00 PM73 °FPassing clouds.No wind94%30.01 "HgN/A
8:00 PM75 °FPassing clouds.3 mph89%29.98 "HgN/A
7:00 PM77 °FPassing clouds.2 mph83%29.95 "HgN/A
6:00 PM79 °FPassing clouds.6 mph84%29.92 "HgN/A
5:00 PM81 °FScattered clouds.5 mph74%29.92 "HgN/A
4:00 PM81 °FScattered clouds.5 mph74%29.92 "HgN/A
3:00 PM81 °FPartly sunny.7 mph74%29.95 "HgN/A
2:00 PM79 °FPartly sunny.6 mph79%29.98 "HgN/A
1:00 PM79 °FMostly cloudy.3 mph79%30.01 "HgN/A
12:00 PM79 °FMostly cloudy.7 mph84%30.04 "HgN/A
11:00 AM75 °FMostly cloudy.7 mph94%30.04 "HgN/A
10:00 AM75 °FPartly sunny.2 mph94%30.04 "HgN/A
9:00 AM73 °FPartly sunny.No wind94%30.04 "HgN/A
8:00 AM72 °FMostly cloudy.No wind94%30.04 "Hg5 mi
7:00 AM72 °FBroken clouds.No wind94%30.01 "HgN/A
6:00 AM72 °FPassing clouds.3 mph94%29.98 "Hg5 mi
5:00 AM72 °FFog.No wind94%29.95 "Hg5 mi
4:00 AM72 °FFog.No wind94%29.95 "Hg2 mi
Weather by CustomWeather, © 2014

See weather overviewHow to use our weather pages